Hourly Data Report for August 03, 2016

TORONTO CITY
ONTARIO

43°40'00.000" N
79°24'00.000" W
112.50 m
6158355
71508
XTO

Download Data

Hourly Data (August 2016)
Hourly Data Report for August 3, 2016
TIME
LST
Temp Definition
°C
Dew Point Definition
°C
Rel Hum Definition
%
Precip. Amount Definition
mm

Wind Dir Definition
10's deg

Wind Spd Definition
km/h
Visibility Definition
km
Stn Press Definition
kPa
Hmdx Definition


Wind Chill Definition


Weather Definition


00:00 22.4 16.6 70 0.0 LegendMM LegendMM   100.58 27   LegendNANA
01:00 22.5 18.7 80 0.0 LegendMM LegendMM   100.56 29   LegendNANA
02:00 21.3 17.6 80 0.0 LegendMM LegendMM   100.56 27   LegendNANA
03:00 20.5 17.7 84 0.0 LegendMM LegendMM   100.57 26   LegendNANA
04:00 20.0 17.8 87 0.0 LegendMM LegendMM   100.56 26   LegendNANA
05:00 20.0 17.4 85 0.0 LegendMM LegendMM   100.57 26   LegendNANA
06:00 19.9 16.3 80 0.0 LegendMM LegendMM   100.58     LegendNANA
07:00 21.8 16.6 72 0.0 LegendMM LegendMM   100.60 27   LegendNANA
08:00 24.1 16.0 60 0.0 LegendMM LegendMM   100.63 29   LegendNANA
09:00 25.2 17.4 62 0.0 LegendMM LegendMM   100.63 31   LegendNANA
10:00 25.7 17.1 59 0.0 LegendMM LegendMM   100.64 31   LegendNANA
11:00 26.5 16.3 54 0.0 LegendMM LegendMM   100.63 31   LegendNANA
12:00 27.0 18.0 58 0.0 LegendMM LegendMM   100.59 33   LegendNANA
13:00 26.9 17.5 56 0.0 LegendMM LegendMM   100.56 33   LegendNANA
14:00 27.7 17.0 52 0.0 LegendMM LegendMM   100.52 33   LegendNANA
15:00 28.1 13.6 41 0.0 LegendMM LegendMM   100.46 31   LegendNANA
16:00 28.0 13.6 41 0.0 LegendMM LegendMM   100.42 31   LegendNANA
17:00 27.5 13.5 42 0.0 LegendMM LegendMM   100.42 31   LegendNANA
18:00 27.2 14.8 47 0.0 LegendMM LegendMM   100.40 31   LegendNANA
19:00 26.3 13.6 45 0.0 LegendMM LegendMM   100.39 29   LegendNANA
20:00 25.1 17.5 63 0.0 LegendMM LegendMM   100.40 31   LegendNANA
21:00 24.4 18.9 71 0.0 LegendMM LegendMM   100.42 31   LegendNANA
22:00 23.5 20.6 84 0.0 LegendMM LegendMM   100.39 32   LegendNANA
23:00 23.2 20.5 84 0.0 LegendMM LegendMM   100.40 31   LegendNANA

Notes on Data Quality.

Legend

  • E = Estimated
  • M = Missing
  • NA = Not Available*
  • [empty] = Indicates an unobserved value
Date modified: